DW7744 Weather Reports


Display with metric or nautical units.
time (UTC)temp
F
wind
direction
speed
MPH
gust
MPH
rain 1hr
in
rain 24hr
in
rain mn
in
humidity
%
barometer
mb
20260507171903 62 314 2.0 5.0 0.00 0.00 0.00 55 943.1
20260507171404 63 286 1.0 2.0 0.00 0.00 0.00 53 943.1
20260507170904 63 316 1.0 2.0 0.00 0.00 0.00 56 943.1
20260507165904 63 316 1.0 3.0 0.00 0.00 0.00 55 943.1
20260507165404 63 337 2.0 5.0 0.00 0.00 0.00 55 943.1
20260507164404 65 332 2.0 5.0 0.00 0.00 0.00 53 943.1
20260507163903 65 327 2.0 5.0 0.00 0.00 0.00 52 943.1
20260507163404 65 339 2.0 5.0 0.00 0.00 0.00 52 943.1
20260507162904 65 316 2.0 5.0 0.00 0.00 0.00 52 943.1
20260507162404 66 350 2.0 5.0 0.00 0.00 0.00 52 943.1
20260507161903 67 1 2.0 5.0 0.00 0.00 0.00 51 943.1
20260507161404 67 30 2.0 6.0 0.00 0.00 0.00 50 943.1
20260507160405 68 335 2.0 6.0 0.00 0.00 0.00 49 943.1
20260507153904 67 12 2.0 6.0 0.00 0.00 0.00 50 943.1
20260507153403 67 344 2.0 6.0 0.00 0.00 0.00 52 943.1
20260507152404 66 56 2.0 5.0 0.00 0.00 0.00 55 943.1
20260507151904 64 104 2.0 3.0 0.00 0.00 0.00 57 943.1
20260507151404 63 331 5.0 3.0 0.00 0.00 0.00 60 943.1
20260507150903 62 311 5.0 5.0 0.00 0.00 0.00 59 943.1
20260507150404 63 35 5.0 8.0 0.00 0.00 0.00 58 943.1
20260507145404 62 12 3.0 7.0 0.00 0.00 0.00 58 943.1
20260507144904 62 344 3.0 6.0 0.00 0.00 0.00 58 943.1
20260507144403 62 6 5.0 7.0 0.00 0.00 0.00 58 943.1
20260507143903 62 306 5.0 8.0 0.00 0.00 0.00 57 943.1
20260507143404 62 312 5.0 8.0 0.00 0.00 0.00 57 943.1
20260507142903 63 304 5.0 7.0 0.00 0.00 0.00 57 943.1
20260507142403 63 346 3.0 7.0 0.00 0.00 0.00 56 943.1
20260507141404 64 328 5.0 5.0 0.00 0.00 0.00 54 943.1
20260507140403 66 301 3.0 8.0 0.00 0.00 0.00 52 943.1
20260507135904 66 343 3.0 8.0 0.00 0.00 0.00 53 943.1
20260507135403 67 273 3.0 8.0 0.00 0.00 0.00 54 943.3
20260507134404 65 19 3.0 10.0 0.00 0.00 0.00 59 943.3
20260507133904 64 54 3.0 10.0 0.00 0.00 0.00 61 943.3
20260507133404 64 348 5.0 8.0 0.00 0.00 0.00 59 943.3
20260507132904 64 22 5.0 8.0 0.00 0.00 0.00 58 943.3
20260507132404 65 335 5.0 8.0 0.00 0.00 0.00 59 943.2
20260507131906 65 29 5.0 8.0 0.00 0.00 0.00 59 943.2
20260507130903 65 16 3.0 7.0 0.00 0.03 0.00 62 943.4
20260507130403 64 13 5.0 7.0 0.00 0.04 0.00 63 943.4
20260507125904 64 13 5.0 8.0 0.00 0.05 0.00 62 943.4
20260507125403 64 286 2.0 8.0 0.00 0.07 0.00 61 943.4
20260507124905 64 328 2.0 6.0 0.00 0.07 0.00 64 943.4
20260507124403 63 50 5.0 6.0 0.00 0.08 0.00 66 943.4
20260507123904 62 338 5.0 7.0 0.00 0.09 0.00 66 943.4
20260507123404 62 288 5.0 7.0 0.00 0.10 0.00 67 943.4
20260507122904 62 67 5.0 7.0 0.00 0.14 0.00 66 943.4
20260507122404 62 308 5.0 13.0 0.00 0.18 0.00 65 943.4
20260507121903 62 292 5.0 13.0 0.00 0.19 0.00 68 943.4
20260507121403 62 275 2.0 5.0 0.00 0.20 0.00 69 943.4
20260507120403 61 264 3.0 5.0 0.00 0.22 0.00 71 943.3
20260507115904 60 260 3.0 5.0 0.00 0.23 0.00 72 943.3
20260507114903 60 64 3.0 9.0 0.00 0.27 0.00 72 943.5
20260507113903 58 333 2.0 8.0 0.00 0.28 0.00 73 943.6
20260507113404 58 60 3.0 5.0 0.00 0.28 0.00 75 943.6
20260507112404 56 277 6.0 8.0 0.00 0.28 0.00 73 943.7
20260507111905 56 331 6.0 8.0 0.00 0.28 0.00 74 943.7
20260507105904 56 246 6.0 13.0 0.00 0.28 0.00 75 943.7
20260507104903 55 241 2.0 7.0 0.00 0.28 0.00 75 943.7
20260507104403 55 275 5.0 6.0 0.00 0.28 0.00 76 943.7
20260507103903 55 251 5.0 7.0 0.00 0.28 0.00 74 943.8
20260507103404 55 324 7.0 12.0 0.00 0.28 0.00 76 943.8
20260507102904 55 281 7.0 12.0 0.00 0.28 0.00 75 943.8
20260507102403 55 262 5.0 12.0 0.00 0.28 0.00 75 943.8
20260507101404 54 257 7.0 9.0 0.00 0.28 0.00 78 943.8
20260507100404 54 254 6.0 10.0 0.00 0.28 0.00 77 943.8
20260507095903 53 252 6.0 10.0 0.00 0.28 0.00 80 943.8
20260507095403 53 268 9.0 12.0 0.00 0.28 0.00 80 943.9
20260507094904 53 225 9.0 15.0 0.00 0.28 0.00 82 943.9
20260507093904 52 260 8.0 15.0 0.00 0.28 0.00 82 943.8
20260507093404 52 249 8.0 13.0 0.00 0.28 0.00 82 943.8
20260507092904 52 261 8.0 13.0 0.00 0.28 0.00 82 943.8
20260507092404 51 256 6.0 13.0 0.00 0.28 0.00 83 943.8
20260507085904 51 268 5.0 9.0 0.00 0.28 0.00 85 943.6
20260507085403 51 250 3.0 7.0 0.00 0.28 0.00 87 943.6
20260507084903 51 245 3.0 7.0 0.00 0.28 0.00 86 943.6
20260507084404 51 244 3.0 7.0 0.00 0.28 0.00 87 943.6
20260507083904 51 261 3.0 7.0 0.00 0.28 0.00 86 943.5
20260507083403 51 234 6.0 7.0 0.00 0.28 0.00 87 943.5
20260507082904 51 243 6.0 10.0 0.00 0.28 0.00 86 943.5
20260507082403 51 214 7.0 10.0 0.00 0.28 0.00 85 943.5
20260507081904 51 239 7.0 9.0 0.00 0.28 0.00 85 943.5
20260507081403 51 265 3.0 9.0 0.00 0.28 0.00 84 943.5
20260507080403 51 260 1.0 7.0 0.00 0.28 0.00 87 943.4
20260507075903 51 243 0.0 0.0 0.00 0.28 0.00 88 943.4
20260507074404 51 273 0.0 0.0 0.00 0.28 0.00 89 943.4
20260507073903 51 273 0.0 0.0 0.00 0.28 0.00 89 943.3
20260507073404 51 273 1.0 0.0 0.00 0.28 0.00 88 943.3
20260507072904 51 273 1.0 0.0 0.00 0.28 0.00 88 943.3
20260507072403 51 256 0.0 0.0 0.00 0.28 0.00 88 943.2
20260507071904 51 299 0.0 0.0 0.00 0.28 0.00 89 943.2
20260507071404 51 2 0.0 0.0 0.00 0.28 0.00 92 943.2
20260507070403 50 93 0.0 0.0 0.00 0.28 0.00 92 943.2
20260507065404 50 92 0.0 0.0 0.00 0.28 0.00 91 943.0
20260507064403 50 92 0.0 0.0 0.00 0.28 0.00 91 943.0
20260507063903 50 88 0.0 0.0 0.00 0.28 0.00 91 942.9
20260507063404 49 88 0.0 0.0 0.00 0.28 0.00 91 942.9
20260507062904 49 88 0.0 0.0 0.00 0.28 0.00 91 942.9
20260507062404 49 88 0.0 0.0 0.00 0.28 0.00 91 942.8
20260507061404 49 88 0.0 0.0 0.00 0.28 0.00 91 942.8
20260507060903 49 88 0.0 0.0 0.00 0.28 0.00 90 942.7
20260507055403 49 88 0.0 0.0 0.00 0.28 0.00 89 942.6
20260507054904 49 88 0.0 0.0 0.00 0.28 0.00 89 942.6
20260507054404 49 88 2.0 0.0 0.00 0.28 0.00 89 942.6
20260507053904 48 255 2.0 5.0 0.00 0.28 0.00 88 942.4
20260507053404 48 255 2.0 5.0 0.00 0.28 0.00 88 942.4
20260507052904 48 255 2.0 5.0 0.00 0.28 0.00 87 942.4
20260507051904 48 237 3.0 9.0 0.00 0.28 0.00 87 942.3
20260507051403 48 227 0.0 6.0 0.00 0.28 0.00 88 942.3
20260507050904 48 257 0.0 6.0 0.00 0.28 0.00 88 942.1
20260507045903 48 237 0.0 0.0 0.00 0.28 0.00 88 942.1
20260507044903 48 238 0.0 0.0 0.00 0.28 0.00 89 942.0
20260507044403 48 236 0.0 0.0 0.00 0.28 0.00 89 942.0
20260507043903 48 234 0.0 0.0 0.00 0.28 0.00 89 941.9
20260507043404 48 233 0.0 0.0 0.00 0.28 0.00 89 941.9
20260507042904 48 233 0.0 0.0 0.00 0.28 0.00 88 941.9
20260507042404 48 234 2.0 2.0 0.00 0.28 0.00 88 941.8
20260507041904 48 234 2.0 3.0 0.00 0.28 0.00 87 941.8
20260507040404 48 235 0.0 0.0 0.00 0.28 0.00 87 941.8
20260507035903 48 235 0.0 0.0 0.00 0.28 0.00 86 941.8
20260507033903 48 233 2.0 5.0 0.00 0.28 0.00 85 941.5
20260507032404 48 211 0.0 0.0 0.00 0.28 0.00 85 941.5
20260507031404 48 265 0.0 0.0 0.00 0.28 0.00 85 941.5
20260507030903 48 263 0.0 0.0 0.00 0.28 0.00 84 941.5
20260507030403 48 262 2.0 2.0 0.00 0.28 0.00 84 941.5
20260507025903 48 263 2.0 5.0 0.00 0.28 0.00 84 941.5
20260507025404 48 263 4.0 6.0 0.00 0.28 0.00 84 941.4
20260507024903 48 227 5.0 7.0 0.00 0.28 0.00 84 941.4
20260507024404 48 249 5.0 7.0 0.00 0.28 0.00 84 941.4
20260507023904 48 248 5.0 7.0 0.00 0.28 0.00 84 941.4
20260507023404 48 240 6.0 7.0 0.00 0.28 0.00 84 941.4
20260507022903 48 254 6.0 8.0 0.00 0.28 0.00 83 941.4
20260507022403 48 226 6.0 8.0 0.00 0.28 0.00 83 941.3
20260507021904 48 226 6.0 9.0 0.00 0.28 0.00 83 941.3
20260507021404 48 225 7.0 9.0 0.00 0.28 0.00 83 941.3
20260507020904 48 224 7.0 10.0 0.00 0.28 0.00 83 941.2
20260507020404 48 225 7.0 10.0 0.00 0.28 0.00 83 941.2
20260507015404 48 226 5.0 12.0 0.00 0.28 0.00 83 941.1
20260507014903 48 220 5.0 8.0 0.00 0.28 0.00 84 941.1
20260507014404 48 223 5.0 8.0 0.00 0.28 0.00 84 941.1
20260507013903 48 232 5.0 7.0 0.00 0.28 0.00 84 941.0
20260507013404 48 242 3.0 9.0 0.00 0.28 0.00 84 941.0
20260507012403 48 242 5.0 6.0 0.00 0.28 0.00 85 941.0
20260507011904 48 263 5.0 6.0 0.00 0.28 0.00 85 941.0
20260507011403 48 248 5.0 7.0 0.00 0.28 0.00 85 941.0
20260507010904 48 256 5.0 7.0 0.00 0.28 0.00 85 940.9
20260507010404 48 227 6.0 7.0 0.00 0.28 0.00 85 940.9
20260507005903 48 244 6.0 7.0 0.00 0.28 0.00 85 940.9
20260507005404 48 219 6.0 7.0 0.00 0.28 0.00 85 940.9
20260507004904 48 223 6.0 9.0 0.00 0.28 0.00 85 940.9
20260507003903 48 226 7.0 9.0 0.00 0.28 0.00 86 940.9
20260507003404 48 229 6.0 8.0 0.00 0.28 0.00 86 940.9
20260507002903 48 247 6.0 8.0 0.00 0.28 0.00 86 940.9
20260507001904 47 237 7.0 13.0 0.00 0.28 0.00 88 940.9
20260507001404 47 230 6.0 9.0 0.00 0.28 0.00 88 940.9
20260507000903 47 231 5.0 9.0 0.00 0.28 0.00 88 940.8
20260507000405 47 247 5.0 9.0 0.00 0.28 0.00 88 940.8
20260506235903 47 234 5.0 6.0 0.00 0.28 0.00 89 940.8
20260506235403 47 259 5.0 7.0 0.00 0.28 0.00 89 940.7
20260506234904 47 253 5.0 7.0 0.00 0.28 0.00 89 940.7
20260506234404 47 240 2.0 7.0 0.00 0.28 0.00 88 940.7
20260506233904 47 233 0.0 7.0 0.00 0.28 0.00 88 940.7
20260506232903 47 231 0.0 0.0 0.00 0.28 0.00 88 940.7
20260506232404 47 226 0.0 0.0 0.00 0.28 0.00 87 940.7
20260506231904 48 224 0.0 0.0 0.00 0.28 0.00 87 940.7
20260506231403 48 224 1.0 0.0 0.00 0.28 0.00 87 940.7
20260506230904 48 226 1.0 0.0 0.00 0.28 0.00 87 940.5
20260506230404 48 226 2.0 5.0 0.00 0.28 0.00 87 940.5
20260506225403 48 218 3.0 6.0 0.00 0.28 0.00 87 940.5
20260506224903 48 210 3.0 6.0 0.00 0.28 0.00 87 940.5
20260506224404 48 253 3.0 6.0 0.00 0.28 0.00 88 940.5
20260506223904 48 256 3.0 6.0 0.00 0.28 0.00 88 940.6
20260506223404 48 228 3.0 5.0 0.00 0.28 0.00 87 940.6
20260506222903 48 244 3.0 5.0 0.00 0.28 0.00 88 940.6
20260506222404 48 248 3.0 5.0 0.00 0.28 0.00 89 940.5
20260506221904 47 229 3.0 5.0 0.00 0.28 0.00 89 940.5
20260506220904 47 229 3.0 5.0 0.00 0.28 0.00 89 940.6
20260506220403 47 262 3.0 5.0 0.00 0.28 0.00 90 940.6
20260506215904 47 228 3.0 5.0 0.00 0.28 0.28 90 940.6
20260506215404 47 226 4.0 5.0 0.00 0.28 0.28 90 940.6
20260506214903 47 221 5.0 6.0 0.00 0.28 0.28 90 940.6
20260506213904 47 230 5.0 7.0 0.00 0.28 0.28 90 940.4
20260506213404 47 224 3.0 6.0 0.00 0.28 0.28 90 940.4
20260506212903 47 230 1.0 5.0 0.00 0.28 0.28 90 940.4
20260506212403 47 224 2.0 5.0 0.00 0.28 0.28 90 940.5
20260506211903 47 221 2.0 3.0 0.00 0.28 0.28 90 940.5
20260506210903 47 216 3.0 5.0 0.00 0.28 0.28 89 940.6
20260506210403 47 210 3.0 5.0 0.00 0.28 0.28 89 940.6
20260506205903 47 220 3.0 5.0 0.00 0.28 0.28 89 940.6
20260506204904 47 217 1.0 5.0 0.00 0.28 0.28 88 940.4
20260506204403 47 213 1.0 3.0 0.00 0.28 0.28 88 940.4
20260506203903 47 216 0.0 3.0 0.00 0.28 0.28 87 940.4
20260506203404 47 215 0.0 2.0 0.00 0.28 0.28 87 940.4
20260506202904 48 216 0.0 0.0 0.00 0.28 0.28 88 940.4
20260506202404 48 216 0.0 0.0 0.00 0.28 0.28 87 940.4
20260506201903 48 216 0.0 0.0 0.00 0.28 0.28 87 940.4
20260506200904 48 216 0.0 0.0 0.00 0.28 0.28 86 940.4
20260506200403 48 216 0.0 0.0 0.00 0.28 0.28 86 940.4
20260506195904 48 216 0.0 0.0 0.00 0.28 0.28 85 940.4
20260506195404 49 214 1.0 2.0 0.00 0.28 0.28 84 940.1
20260506194903 49 216 2.0 5.0 0.00 0.28 0.28 84 940.1
20260506194404 49 215 2.0 5.0 0.00 0.28 0.28 83 940.1
20260506193403 49 225 2.0 5.0 0.00 0.28 0.28 83 940.1
20260506192904 49 235 2.0 7.0 0.00 0.28 0.28 83 940.1
20260506192404 49 236 3.0 7.0 0.00 0.28 0.28 83 939.8
20260506191903 49 231 3.0 6.0 0.00 0.28 0.28 82 939.8
20260506191403 49 226 3.0 6.0 0.00 0.28 0.28 82 939.8
20260506190903 49 231 3.0 6.0 0.00 0.28 0.28 82 939.7
20260506190404 50 265 3.0 7.0 0.00 0.28 0.28 81 939.7
20260506185904 50 208 2.0 7.0 0.00 0.28 0.28 81 939.7
20260506185404 50 211 2.0 3.0 0.00 0.28 0.28 81 939.5
20260506184904 50 195 2.0 5.0 0.00 0.28 0.28 80 939.5
20260506184404 51 248 2.0 5.0 0.00 0.28 0.28 80 939.5
20260506182904 51 240 1.0 1.0 0.00 0.28 0.28 79 939.4
20260506182404 52 243 1.0 5.0 0.00 0.28 0.28 80 939.3
20260506181403 53 316 1.0 6.0 0.00 0.28 0.28 78 939.3
20260506180910 53 208 0.0 0.0 0.00 0.28 0.28 78 939.2
20260506180404 54 152 0.0 1.0 0.00 0.28 0.28 77 939.2
20260506175904 54 319 0.0 1.0 0.00 0.28 0.28 77 939.2
20260506175404 55 74 1.0 1.0 0.00 0.28 0.28 77 938.9
20260506174904 55 240 1.0 2.0 0.00 0.28 0.28 77 938.9
20260506174404 55 241 2.0 2.0 0.00 0.28 0.28 77 938.9
20260506173903 55 241 3.0 7.0 0.00 0.28 0.28 77 938.6
20260506172903 54 257 5.0 8.0 0.00 0.28 0.28 78 938.6
20260506172404 54 234 5.0 8.0 0.00 0.28 0.28 80 938.4